This is the latest recevied weather packets stored in our database for station/object KI4HRG. If no packets are shown the sender has not sent any weather packets the latest 10 day(s).
| Time | Temp. | Humidity | Pressure | Rain* | Wind** | Luminosity | Snow |
|---|---|---|---|---|---|---|---|
| 1777299813 | 21.11° C | 84% | 1017.9 hPa | 0 mm | - | 191 W/m² | - |
| 1777299511 | 20.56° C | 85% | 1017.8 hPa | 0 mm | - | 201 W/m² | - |
| 1777299208 | 21.11° C | 85% | 1017.9 hPa | 0 mm | - | 209 W/m² | - |
| 1777298906 | 21.11° C | 84% | 1017.8 hPa | 0 mm | - | 192 W/m² | - |
| 1777298602 | 21.11° C | 85% | 1018.1 hPa | 0 mm | - | 179 W/m² | - |
| 1777298299 | 21.11° C | 84% | 1017.9 hPa | 0 mm | - | 216 W/m² | - |
| 1777297988 | 20.56° C | 85% | 1018 hPa | 0 mm | - | 496 W/m² | - |
| 1777297684 | 21.11° C | 84% | 1018 hPa | 0 mm | - | 246 W/m² | - |
| 1777297383 | 21.11° C | 83% | 1018 hPa | 0 mm | - | 491 W/m² | - |
| 1777297079 | 21.11° C | 84% | 1017.8 hPa | 0 mm | - | 240 W/m² | - |
| 1777296776 | 21.11° C | 83% | 1017.9 hPa | 0 mm | - | 243 W/m² | - |
| 1777296471 | 20.56° C | 84% | 1017.6 hPa | 0 mm | - | 337 W/m² | - |
| 1777296168 | 20.56° C | 85% | 1017.4 hPa | 0 mm | - | 283 W/m² | - |
| 1777295864 | 20° C | 85% | 1017.4 hPa | 0 mm | - | 278 W/m² | - |
| 1777295562 | 20.56° C | 85% | 1017.3 hPa | 0 mm | - | 247 W/m² | - |
| 1777295259 | 20° C | 86% | 1017.4 hPa | 0 mm | - | 181 W/m² | - |
| 1777294957 | 20° C | 86% | 1017.1 hPa | 0 mm | - | 139 W/m² | - |
| 1777294652 | 20° C | 87% | 1017.2 hPa | 0 mm | - | 134 W/m² | - |
| 1777294348 | 19.44° C | 88% | 1017.1 hPa | 0 mm | - | 123 W/m² | - |
| 1777294045 | 18.89° C | 90% | 1017.2 hPa | 0 mm | - | 105 W/m² | - |
| 1777293743 | 17.78° C | 91% | 1017 hPa | 0 mm | - | 44 W/m² | - |
| 1777293436 | 17.78° C | 91% | 1017 hPa | 0 mm | - | 28 W/m² | - |
| 1777293133 | 17.78° C | 92% | 1017.1 hPa | 0 mm | - | 25 W/m² | - |
| 1777292832 | 17.78° C | 92% | 1017.2 hPa | 0 mm | - | 23 W/m² | - |
| 1777292529 | 17.78° C | 94% | 1017.1 hPa | 0 mm | - | 21 W/m² | - |
* Rain latest hour (hover to see other rain measurements)
** Current wind speed in m/s (hover to see current wind gust speed)